Wind_Speed
14 14 15 16 16 16 16 17 16 14 13 11 10 9 7 6 5 4 2 1 1 3 3 4 4 4 4 5 5 6 6 6 6 6 6 6 6 7 7 8 8 9 9
12 13 13 14 15 15 15 16 15 14 13 11 10 9 7 6 5 4 3 1 0 1 2 3 3 4 4 5 5 7 7 7 7 7 7 7 8 9 9 10 10 10 10
11 12 13 13 13 13 14 14 14 13 13 12 10 9 8 6 4 3 3 1 0 1 2 2 3 3 4 5 5 6 7 7 8 8 9 9 9 9 10 11 11 11 12
10 11 12 12 13 13 12 13 13 13 12 12 11 8 7 6 5 4 3 2 1 1 2 3 3 4 5 5 6 6 7 8 8 8 8 9 10 10 11 11 11 12 12
9 10 11 12 12 12 12 12 12 12 12 11 11 9 7 6 6 5 4 3 3 2 3 4 4 5 6 6 7 7 7 8 8 9 9 9 10 11 11 11 12 12 13
9 10 11 11 11 11 11 11 12 12 12 12 11 9 8 7 5 4 4 4 3 3 4 5 5 6 6 7 8 8 8 9 9 10 10 11 11 11 11 11 12 13 14
9 10 12 12 11 11 11 11 11 12 12 12 11 9 8 7 6 5 5 4 4 4 4 5 5 6 7 7 8 9 10 10 11 11 11 11 11 12 12 12 13 14 14
8 9 11 11 11 11 10 11 11 12 12 12 11 9 8 8 7 6 6 6 5 5 5 5 6 7 7 8 9 9 10 11 12 12 12 12 12 13 13 13 14 14 14
9 9 9 10 11 11 11 11 11 12 12 11 11 10 9 8 8 7 6 6 6 6 7 7 8 8 8 9 10 11 11 12 13 13 13 13 14 14 14 14 14 15 15
8 9 9 10 11 11 12 11 11 11 11 11 11 10 9 8 8 7 7 7 7 7 7 8 8 9 10 11 11 12 12 13 14 15 15 15 15 15 16 16 16 16 17
8 10 10 11 11 11 12 12 11 11 11 11 11 10 9 8 8 7 7 7 7 8 9 9 10 11 12 12 12 12 13 14 15 16 16 16 16 17 17 17 17 17 18
10 11 11 11 11 12 12 11 11 11 11 11 11 10 10 9 8 8 8 8 9 9 10 10 10 11 12 12 13 13 13 14 15 15 16 17 17 17 18 17 18 18 19
13 12 11 11 11 12 11 11 12 12 12 11 11 10 10 10 10 10 9 10 10 10 11 11 11 12 13 14 14 14 15 16 16 16 17 17 18 18 18 19 19 19 19
13 12 11 12 12 13 12 12 12 12 12 11 11 11 11 12 12 11 11 11 11 12 13 13 14 14 15 15 15 16 17 17 17 17 17 18 18 18 18 18 19 19 19
14 14 13 13 13 14 13 13 14 13 13 13 12 12 13 13 13 13 14 14 14 14 14 15 16 16 16 16 16 17 17 17 17 18 18 18 18 18 19 19 19 20 20
17 16 15 15 15 14 15 15 15 15 15 15 15 14 14 15 15 15 15 16 16 16 17 17 17 18 18 18 18 18 18 18 19 19 19 19 19 19 20 20 20 21 22
19 19 19 19 18 17 16 16 16 16 16 16 16 16 17 17 17 17 17 17 17 18 18 19 20 19 19 19 20 20 20 20 19 19 20 20 20 20 20 21 21 22 22
22 22 22 22 21 20 19 18 18 18 18 18 18 18 18 18 18 18 18 19 19 20 20 21 21 22 22 22 21 21 22 21 21 21 20 20 20 20 21 21 22 23 24
26 25 24 24 24 22 21 21 20 21 20 20 20 20 20 20 19 19 20 20 21 22 22 22 22 22 22 21 22 22 22 22 22 21 21 22 22 22 23 24 24 25 25
28 27 26 27 26 24 23 23 22 23 23 22 22 22 22 22 21 21 21 21 23 23 23 24 23 23 22 22 22 22 22 22 22 22 22 22 23 24 24 24 25 26 26
31 29 28 28 27 27 26 25 24 24 25 25 25 24 24 24 23 23 23 23 24 24 24 25 24 24 23 22 22 23 23 23 23 23 23 23 24 24 24 24 25 25 26
33 32 31 29 29 29 28 28 27 27 27 27 27 26 26 26 25 25 25 25 25 26 25 25 25 25 24 23 23 23 24 24 24 24 24 24 24 24 25 25 25 25 26
34 34 33 31 30 30 30 30 30 29 29 29 29 28 28 28 27 27 27 27 27 27 26 25 25 25 24 24 24 24 24 25 25 25 25 25 26 26 26 26 27 27 27
35 35 34 34 33 32 32 32 32 31 31 31 31 30 30 29 28 29 29 28 28 28 27 26 26 26 25 26 26 25 25 25 26 27 27 28 28 28 28 28 29 29 29
36 36 35 34 34 34 33 33 33 32 32 33 32 32 32 30 29 29 29 29 28 27 27 28 28 29 28 27 27 26 26 27 27 28 29 29 29 29 30 30 30 30 31
35 35 35 35 35 34 34 34 33 34 34 34 34 33 32 32 31 31 30 30 30 29 29 29 30 30 30 29 28 28 28 29 29 30 30 30 30 30 31 31 31 32 32
Wind_Direction
18 21 23 23 23 24 23 22 22 22 22 23 21 18 20 18 16 20 28 43 158 194 204 212 218 222 221 228 237 240 239 239 239 240 244 245 248 250 255 259 262 264 269
8 14 18 17 18 19 19 18 19 20 21 19 16 12 10 5 4 4 9 29 130 193 207 221 223 227 234 236 239 242 246 247 246 248 252 253 252 255 263 265 266 264 264
359 6 10 11 11 12 14 15 17 19 21 18 13 12 9 5 5 0 359 355 255 198 219 229 231 236 237 238 243 245 246 246 251 254 256 258 260 262 267 269 268 267 266
349 357 0 2 3 5 7 10 11 14 14 13 13 9 5 3 360 357 348 333 301 259 229 238 247 251 249 245 249 251 253 255 256 256 260 262 262 268 270 271 272 271 269
338 347 352 354 357 359 0 2 3 8 10 10 12 10 3 359 357 349 347 335 310 278 257 258 261 265 261 257 259 258 261 263 264 265 268 269 267 268 270 271 273 272 270
327 336 345 349 354 356 356 357 359 2 3 4 6 7 2 357 352 341 337 337 317 290 279 276 272 275 276 268 266 266 267 269 272 273 273 273 272 270 270 271 272 272 273
321 335 342 344 350 352 353 354 356 358 359 359 0 2 360 353 348 339 326 322 317 311 299 289 283 286 288 285 278 273 272 271 271 273 275 274 273 271 271 272 273 274 275
316 330 337 343 348 350 352 353 351 352 354 356 359 357 356 353 347 335 329 325 320 314 309 299 294 291 292 291 288 284 278 273 272 273 274 274 275 275 274 275 276 277 278
311 322 329 333 337 341 345 347 348 348 349 350 351 349 345 345 341 331 325 323 314 310 311 308 301 296 295 292 286 283 283 278 274 274 274 275 276 277 277 278 279 279 280
303 313 318 322 327 331 335 338 338 340 343 344 344 345 341 337 337 332 323 319 309 304 303 305 305 301 298 296 293 288 286 283 278 275 276 276 276 277 279 280 280 280 281
299 303 309 317 321 325 328 332 333 332 334 338 341 342 341 337 332 326 321 318 314 310 305 303 302 302 299 295 293 289 288 287 280 276 277 278 277 277 277 278 280 281 282
285 293 302 310 315 320 325 326 327 331 334 337 338 339 337 333 329 323 316 315 314 311 308 306 301 302 302 298 295 292 290 289 287 281 277 277 278 279 278 278 279 281 282
289 291 291 300 310 315 319 324 328 331 333 335 336 333 333 331 326 323 318 314 310 308 310 309 306 306 305 301 298 294 294 291 287 284 280 278 279 280 280 281 281 282 284
282 286 286 295 303 307 309 312 316 319 322 324 326 327 327 327 324 321 314 310 306 304 305 306 307 307 306 302 299 298 297 295 291 287 283 281 282 282 282 283 283 284 285
281 286 288 289 295 301 304 304 308 309 312 315 320 318 316 317 316 313 313 310 308 306 305 305 306 305 304 302 300 300 298 295 293 290 287 285 285 284 284 284 284 285 285
282 284 284 287 289 294 298 299 304 306 308 309 312 313 313 312 312 310 312 312 309 307 306 306 306 304 302 302 301 300 299 296 293 292 289 289 289 289 286 285 284 285 286
277 278 280 281 282 288 293 295 296 296 298 301 304 307 308 308 310 309 310 310 308 305 305 305 305 303 300 299 298 298 299 297 296 295 292 288 289 291 290 288 286 287 287
276 276 279 281 284 286 289 291 294 295 296 299 302 302 303 303 305 307 308 308 308 307 307 304 302 299 297 296 295 296 296 296 296 295 295 292 291 292 292 290 289 289 288
272 270 274 279 281 282 283 285 288 292 293 294 296 298 297 297 301 303 304 304 305 306 305 302 301 298 296 295 294 295 296 296 297 297 295 293 292 292 292 291 289 288 289
270 272 276 280 280 279 280 281 283 286 289 289 289 290 294 294 296 297 300 302 304 304 303 302 301 299 297 296 294 294 296 297 297 297 297 296 295 294 293 293 290 289 289
269 272 274 277 278 277 278 278 280 282 284 284 285 286 289 291 292 294 296 298 301 303 303 301 298 298 296 295 294 293 294 297 296 296 297 298 298 298 297 296 295 294 292
267 270 271 273 274 276 278 278 279 278 279 280 283 284 286 289 290 291 294 297 300 302 302 301 299 298 297 296 296 293 292 293 294 295 296 297 297 298 299 299 298 297 296
264 267 270 272 272 274 276 278 279 279 279 280 282 282 283 287 291 292 293 297 299 300 299 300 299 298 298 296 295 293 292 292 294 295 296 297 297 297 298 298 298 298 297
262 265 268 271 272 273 275 277 278 278 278 280 282 282 284 289 290 291 293 295 298 297 297 299 300 300 298 296 296 295 294 294 295 296 297 297 297 296 296 297 297 297 297
262 265 268 270 271 273 274 275 276 276 278 281 281 282 285 287 288 291 292 293 295 295 295 297 299 299 298 297 297 297 297 297 297 297 297 297 296 295 295 295 295 296 296
261 264 267 269 270 271 272 274 275 277 279 280 282 282 284 285 286 288 290 291 292 293 294 295 297 298 297 296 296 297 297 297 297 297 297 296 295 294 294 294 294 295 295
Height
5929 5926 5925 5923 5920 5919 5916 5914 5911 5909 5907 5905 5904 5903 5902 5901 5900 5899 5898 5898 5897 5897 5897 5897 5898 5898 5898 5898 5898 5899 5899 5899 5899 5899 5899 5899 5899 5899 5898 5898 5897 5897 5897
5930 5927 5926 5924 5921 5919 5917 5915 5912 5910 5908 5906 5904 5903 5902 5901 5900 5899 5898 5897 5897 5896 5896 5897 5897 5897 5897 5897 5897 5897 5897 5897 5898 5898 5898 5898 5898 5897 5897 5896 5896 5895 5894
5930 5928 5927 5925 5922 5920 5917 5915 5913 5911 5908 5906 5904 5903 5901 5900 5899 5899 5898 5897 5896 5896 5896 5896 5896 5895 5895 5895 5895 5895 5895 5895 5896 5896 5896 5895 5895 5895 5895 5894 5893 5893 5892
5930 5928 5927 5925 5922 5920 5917 5915 5913 5911 5908 5906 5904 5902 5901 5900 5899 5898 5897 5896 5896 5895 5895 5894 5894 5894 5894 5894 5893 5893 5893 5893 5893 5893 5893 5893 5893 5893 5892 5891 5890 5890 5889
5930 5927 5926 5924 5922 5919 5917 5915 5913 5910 5908 5906 5903 5901 5900 5899 5898 5897 5896 5895 5895 5894 5893 5893 5893 5892 5892 5892 5892 5892 5891 5891 5891 5891 5890 5890 5890 5890 5889 5889 5888 5887 5886
5928 5926 5925 5922 5920 5918 5916 5914 5913 5910 5907 5905 5903 5901 5899 5898 5897 5896 5895 5894 5894 5893 5892 5892 5891 5891 5890 5890 5890 5889 5889 5888 5888 5888 5887 5887 5887 5886 5886 5886 5885 5884 5883
5926 5924 5923 5921 5919 5917 5915 5913 5911 5909 5907 5904 5902 5900 5899 5897 5896 5895 5895 5894 5893 5892 5891 5890 5889 5889 5888 5888 5887 5887 5886 5886 5885 5885 5884 5884 5884 5883 5883 5882 5881 5880 5879
5925 5924 5922 5920 5918 5916 5914 5912 5910 5908 5906 5904 5901 5899 5898 5896 5895 5894 5893 5892 5891 5891 5889 5889 5888 5887 5886 5885 5885 5884 5883 5883 5882 5882 5881 5881 5880 5879 5879 5878 5877 5876 5875
5923 5922 5921 5919 5917 5915 5913 5910 5908 5907 5905 5902 5900 5898 5896 5895 5894 5893 5891 5891 5890 5889 5888 5887 5886 5885 5884 5883 5882 5881 5880 5880 5879 5878 5877 5877 5876 5875 5874 5874 5873 5872 5871
5920 5919 5918 5917 5915 5913 5911 5908 5906 5904 5902 5900 5898 5896 5894 5893 5892 5891 5890 5889 5888 5887 5886 5885 5884 5883 5882 5881 5880 5878 5877 5876 5875 5874 5874 5873 5872 5871 5870 5869 5868 5867 5866
5917 5917 5916 5915 5913 5911 5908 5906 5904 5902 5900 5898 5896 5894 5893 5891 5890 5889 5888 5887 5886 5885 5883 5882 5881 5880 5878 5877 5876 5875 5874 5873 5871 5870 5869 5868 5867 5866 5865 5864 5863 5862 5860
5914 5914 5913 5912 5910 5908 5906 5903 5901 5900 5898 5896 5894 5892 5891 5889 5888 5887 5886 5885 5884 5882 5881 5879 5878 5877 5875 5873 5872 5871 5869 5868 5867 5866 5865 5864 5863 5861 5860 5859 5858 5856 5855
5911 5911 5910 5909 5908 5906 5904 5902 5900 5898 5896 5894 5892 5890 5889 5888 5886 5885 5884 5883 5881 5880 5878 5876 5875 5873 5871 5870 5868 5866 5865 5864 5862 5861 5860 5858 5857 5856 5855 5853 5852 5851 5850
5907 5907 5906 5906 5905 5904 5902 5900 5898 5896 5894 5892 5890 5889 5887 5886 5884 5883 5881 5880 5878 5877 5875 5873 5871 5869 5867 5866 5864 5862 5860 5859 5857 5856 5855 5853 5852 5851 5849 5848 5846 5845 5844
5903 5903 5903 5902 5901 5900 5898 5896 5895 5893 5892 5890 5888 5887 5885 5883 5882 5880 5878 5877 5875 5873 5871 5869 5867 5865 5863 5861 5859 5858 5856 5854 5852 5851 5849 5848 5846 5845 5843 5842 5841 5839 5838
5899 5899 5899 5898 5897 5896 5894 5893 5892 5891 5889 5888 5886 5884 5882 5880 5878 5876 5874 5873 5871 5869 5867 5865 5863 5861 5859 5857 5855 5853 5851 5849 5847 5845 5844 5842 5840 5839 5837 5836 5835 5833 5832
5894 5894 5894 5894 5892 5891 5890 5890 5888 5887 5885 5883 5882 5880 5878 5876 5874 5872 5870 5868 5867 5865 5863 5861 5858 5856 5854 5852 5850 5848 5846 5844 5842 5840 5838 5836 5835 5833 5831 5830 5828 5827 5825
5889 5889 5888 5888 5887 5887 5886 5885 5884 5882 5881 5879 5877 5876 5874 5872 5870 5868 5866 5864 5862 5860 5858 5855 5853 5851 5849 5846 5844 5843 5841 5839 5837 5835 5833 5831 5829 5827 5825 5823 5821 5820 5818
5883 5883 5882 5882 5881 5881 5880 5879 5879 5877 5876 5874 5873 5871 5869 5867 5865 5863 5861 5859 5857 5855 5852 5850 5847 5845 5843 5841 5839 5837 5834 5833 5831 5829 5827 5825 5823 5820 5818 5817 5815 5813 5811
5876 5876 5876 5875 5875 5874 5874 5873 5872 5871 5870 5869 5867 5866 5864 5862 5860 5858 5856 5854 5851 5849 5846 5844 5841 5839 5837 5835 5833 5831 5829 5827 5825 5823 5821 5819 5816 5814 5811 5810 5807 5805 5803
5868 5869 5869 5869 5868 5868 5867 5866 5865 5864 5864 5862 5860 5859 5857 5855 5854 5852 5850 5848 5845 5842 5840 5837 5835 5833 5830 5829 5827 5825 5823 5821 5818 5817 5814 5812 5810 5807 5805 5803 5800 5798 5796
5860 5860 5860 5861 5860 5860 5859 5859 5858 5856 5855 5854 5853 5852 5850 5848 5847 5845 5843 5841 5839 5836 5834 5831 5829 5826 5824 5822 5820 5818 5816 5814 5812 5810 5808 5805 5803 5801 5798 5796 5793 5791 5788
5851 5851 5852 5852 5852 5852 5852 5851 5850 5848 5847 5847 5845 5844 5843 5841 5839 5837 5836 5834 5832 5830 5827 5825 5823 5820 5818 5816 5814 5812 5809 5807 5805 5803 5800 5798 5796 5793 5791 5788 5786 5783 5780
5841 5841 5842 5843 5843 5843 5843 5842 5841 5840 5839 5839 5837 5836 5835 5834 5832 5831 5828 5826 5824 5822 5821 5819 5816 5814 5811 5809 5807 5804 5802 5800 5797 5795 5793 5790 5788 5785 5783 5780 5777 5775 5772
5831 5832 5832 5833 5834 5834 5833 5833 5832 5830 5830 5830 5829 5828 5827 5825 5823 5822 5820 5819 5817 5815 5813 5812 5809 5807 5805 5802 5800 5797 5795 5792 5790 5787 5785 5782 5779 5777 5774 5772 5769 5766 5763
5820 5821 5822 5823 5823 5824 5824 5823 5823 5822 5822 5821 5820 5819 5818 5817 5816 5815 5812 5810 5809 5807 5805 5803 5802 5799 5797 5794 5792 5790 5787 5784 5782 5779 5776 5774 5771 5768 5765 5763 5760 5757 5754